GFSSE_925_spd_021.txt.gz
Wind_Speed
29 28 25 25 25 24 25 25 24 24 23 22 22 22 22 22 22 22 22 21 22 22 21 21 20 20 19 18 18 17 16 16 13 12 13 13 15 16 17 15 13 14 14
39 30 29 27 26 26 26 25 24 23 23 22 21 22 22 22 21 21 21 20 21 21 21 21 22 23 22 21 20 17 17 16 14 10 12 14 15 17 17 18 15 15 15
39 28 29 29 28 27 26 25 24 23 22 23 22 21 22 22 21 20 20 20 21 20 20 21 23 25 25 23 20 18 19 22 14 14 14 14 18 17 16 15 15 15 15
37 34 30 29 28 27 26 24 23 22 22 22 22 22 21 22 20 19 20 21 21 20 19 21 23 24 25 23 20 20 24 27 15 20 18 14 16 16 15 14 14 14 12
33 35 31 29 28 26 26 24 24 22 22 22 22 21 20 20 20 21 21 21 21 19 20 21 22 24 25 26 23 21 27 25 18 13 14 16 17 16 15 15 15 14 13
32 34 31 27 26 26 25 25 24 23 22 21 21 20 20 19 20 21 22 20 19 19 19 19 20 21 22 25 22 23 24 26 10 15 17 18 18 15 14 15 15 15 15
36 33 30 26 24 25 25 23 23 22 20 20 20 19 19 20 21 21 20 19 18 17 16 16 16 17 18 22 21 20 21 25 21 12 15 16 16 15 15 13 14 15 16
37 30 30 24 18 24 23 22 21 21 20 20 19 19 19 20 20 20 18 16 16 15 13 13 12 13 14 17 19 19 18 25 18 9 12 13 13 12 13 12 12 13 13
29 26 23 26 16 20 23 23 21 19 18 19 19 19 19 18 17 15 13 13 12 11 10 9 10 11 12 12 14 19 17 22 17 9 10 12 12 11 11 10 11 11 11
25 27 25 19 18 21 22 21 21 19 18 19 20 21 19 17 14 13 9 9 8 8 8 9 12 11 12 17 8 17 16 17 23 8 12 13 12 11 11 9 9 10 10
20 21 23 21 19 22 21 21 21 19 20 20 19 17 15 13 11 8 9 7 7 8 7 9 10 10 11 12 12 11 12 13 18 14 14 12 11 12 12 10 9 10 12
28 30 27 22 24 22 21 21 23 21 21 18 15 14 13 11 9 6 4 6 6 6 7 6 12 6 10 9 10 9 10 8 12 15 16 11 12 10 10 8 9 10 12
31 28 25 25 25 25 24 24 22 19 18 14 10 13 9 10 8 8 5 5 5 7 9 11 11 9 10 12 13 14 8 7 9 11 13 11 11 7 9 9 10 12 13
28 31 30 28 28 23 24 24 21 21 18 16 12 13 11 13 10 9 9 7 8 7 6 8 10 13 12 12 14 13 12 12 10 14 13 13 9 6 6 6 9 10 13
30 30 30 26 27 25 23 27 24 21 20 14 12 11 9 7 5 4 2 7 4 5 9 10 10 11 9 9 10 13 14 15 13 15 13 10 10 11 1 6 8 9 10
30 28 25 26 24 25 29 26 23 19 16 13 13 11 4 3 4 3 4 5 5 9 8 6 8 9 10 11 12 15 16 17 11 10 17 16 13 11 4 4 5 6 7
30 29 23 27 21 27 27 24 21 17 12 11 8 7 5 4 4 7 9 9 8 9 7 6 5 6 7 10 11 13 17 11 12 14 14 20 11 7 4 4 5 5 7
32 30 27 26 22 25 23 21 17 8 7 7 9 13 14 14 12 10 7 6 5 6 7 5 7 9 12 13 13 14 12 19 17 16 18 20 17 9 8 3 5 6 7
37 35 30 26 26 24 22 20 11 8 6 8 13 13 13 12 9 8 3 5 5 5 6 9 11 13 14 13 14 13 16 12 14 14 15 20 19 2 2 3 4 5 9
39 36 32 30 28 26 23 20 10 10 9 14 14 12 11 9 7 9 9 7 6 5 8 11 13 11 13 15 14 13 11 14 11 13 16 18 17 17 8 9 10 10 13
38 38 36 33 29 24 23 20 14 16 17 18 16 13 14 11 7 3 2 5 8 9 11 12 14 15 16 11 10 16 16 9 13 14 15 16 17 16 14 14 10 11 8
35 36 35 33 29 21 25 22 19 20 21 16 13 13 12 10 6 5 6 6 8 11 10 11 14 16 11 8 9 11 3 10 10 17 16 17 14 16 18 19 15 8 8
33 34 35 34 27 22 23 22 23 23 24 21 18 15 9 6 6 4 2 2 4 6 9 12 12 8 7 9 8 5 3 1 4 3 10 11 16 17 17 22 13 10 14
29 23 27 26 26 26 20 27 33 30 23 19 19 14 12 10 6 3 2 5 8 12 13 13 14 14 12 5 5 5 9 7 1 4 9 9 16 20 21 20 18 18 14
27 25 21 26 22 20 29 24 23 27 26 26 21 16 9 5 2 1 5 8 12 11 12 13 13 5 3 5 8 10 10 7 10 2 2 9 15 15 18 16 21 19 18
22 25 22 25 21 20 23 26 28 29 26 22 15 10 6 3 2 2 5 9 9 11 12 11 4 6 6 8 11 6 7 4 3 3 2 4 11 17 14 17 19 20 24

GFSSE_925_spd_024.txt.gz
Wind_Speed
28 31 30 28 27 27 26 25 25 26 25 26 25 26 27 27 26 25 25 23 22 21 22 23 23 22 22 23 23 20 17 15 15 17 17 18 17 18 18 18 17 17 16
36 34 33 31 29 28 27 26 25 25 25 26 25 26 27 26 25 24 24 23 24 23 25 26 26 25 25 25 24 21 14 13 14 15 17 18 18 18 19 18 17 17 15
31 34 34 32 31 28 26 25 24 25 25 26 26 26 26 25 25 24 24 25 25 24 26 26 26 26 23 25 28 24 17 17 18 16 16 18 18 17 17 18 17 16 15
37 36 35 36 33 29 27 26 25 24 25 26 27 25 25 24 24 25 25 25 25 25 25 26 27 27 25 27 30 29 22 22 19 16 16 19 21 18 17 18 17 17 14
34 37 36 35 33 30 28 26 25 24 25 26 26 23 23 24 25 26 25 25 25 25 24 24 25 26 24 26 30 30 21 17 14 17 18 19 20 17 18 18 17 17 17
29 36 36 35 33 29 27 26 25 25 26 26 25 23 23 25 26 26 25 24 23 22 21 21 22 24 23 22 25 29 21 16 12 15 16 17 17 15 17 17 17 18 18
28 35 35 32 31 29 26 24 24 24 25 24 24 23 24 25 25 25 23 22 20 19 18 18 19 20 21 21 20 26 23 17 12 13 13 14 15 14 15 14 14 15 16
31 35 35 34 32 27 24 24 24 23 23 23 24 23 24 25 24 23 21 19 17 16 15 16 16 16 16 17 19 23 23 17 9 11 11 11 11 12 12 12 12 12 12
23 31 33 40 38 25 22 23 21 21 22 22 23 24 23 23 22 19 18 16 15 13 13 14 14 14 14 11 14 16 18 17 9 12 12 12 12 11 11 11 11 11 11
34 37 31 28 28 28 24 21 20 21 22 23 23 22 21 20 18 15 14 13 12 12 13 12 11 11 10 10 7 11 13 14 12 12 12 11 10 12 11 11 10 12 13
23 16 26 30 23 22 23 21 21 21 22 24 23 22 19 18 15 14 13 12 11 9 9 9 7 8 8 9 9 9 9 7 8 11 10 8 9 10 11 10 10 10 12
27 29 34 26 25 24 23 23 23 24 23 21 19 18 16 14 12 10 9 9 8 8 6 6 7 9 11 11 10 8 6 6 7 9 9 5 5 7 8 7 7 7 7
24 34 30 25 27 27 25 25 24 24 20 16 14 13 12 11 8 9 8 8 9 9 12 10 9 8 8 8 10 11 10 9 8 9 10 9 5 4 5 7 7 4 6
27 31 25 25 28 26 27 26 24 21 16 14 14 13 16 20 17 17 14 13 11 9 8 7 7 8 9 10 10 11 11 10 10 9 7 4 5 3 1 2 6 4 5
17 25 24 27 28 26 25 23 20 18 20 19 18 18 16 13 11 9 10 10 9 5 6 5 4 4 4 4 5 8 12 13 9 10 9 6 5 4 2 5 6 6 5
20 26 27 29 28 26 23 20 21 22 18 17 16 14 13 12 9 8 9 10 8 7 6 4 4 4 5 6 8 13 13 13 11 11 10 8 5 6 6 7 6 5 5
27 31 31 30 25 26 24 25 23 21 17 14 12 10 10 8 8 9 11 11 9 7 6 5 4 4 6 9 13 14 9 13 12 12 14 13 5 5 7 7 5 5 5
32 33 26 29 31 31 32 26 22 17 13 13 12 13 13 15 14 13 12 10 7 7 5 4 6 8 10 10 9 7 10 7 10 11 14 15 3 4 7 4 6 6 6
40 35 27 30 34 33 29 24 19 13 13 15 16 17 16 15 15 13 10 10 5 4 3 6 9 11 11 10 8 5 3 9 9 11 15 17 16 5 4 6 4 5 6
43 37 32 32 33 30 26 22 18 15 16 17 17 16 15 13 13 11 9 6 3 1 5 9 11 10 11 11 6 4 5 7 9 12 15 15 15 13 11 9 7 8 9
37 40 38 36 34 32 31 25 20 19 20 16 16 15 13 12 12 8 4 1 2 7 9 10 9 11 12 8 5 9 7 3 9 12 12 10 12 12 10 11 9 5 7
40 37 37 38 39 36 30 26 20 19 19 19 19 16 14 11 8 5 4 4 5 6 6 6 9 8 4 7 5 3 2 5 5 12 8 10 11 10 12 14 9 9 10
32 38 40 39 38 32 27 25 20 21 24 23 22 17 13 9 6 4 3 2 0 3 5 6 6 5 4 1 4 1 1 2 2 1 3 5 6 9 12 11 10 12 10
37 39 37 38 35 30 28 31 30 30 26 26 24 19 14 9 7 7 5 1 2 5 6 7 8 7 2 2 2 3 0 4 3 2 1 0 5 7 10 10 11 12 10
35 37 37 35 32 27 32 30 33 33 29 25 21 19 15 12 9 6 2 2 6 6 7 8 6 3 3 2 2 5 7 5 5 3 2 4 4 8 5 6 13 17 19
31 32 31 32 28 28 25 27 36 34 28 27 24 20 15 12 7 3 3 7 8 7 9 7 3 5 7 7 7 5 3 3 5 4 3 5 5 3 5 9 12 15 18

GFSSE_925_spd_027.txt.gz
Wind_Speed
28 30 28 27 27 27 27 27 28 28 27 27 27 29 29 29 28 29 28 27 26 24 24 24 23 24 23 18 15 14 16 18 19 19 19 18 18 18 18 18 19 19 18
31 33 31 30 29 28 27 27 26 26 25 26 28 29 30 28 28 29 29 30 30 26 25 24 25 26 24 19 15 16 16 18 18 21 21 19 18 18 19 19 19 19 18
32 34 33 32 31 29 28 26 26 25 24 26 27 28 27 29 27 29 31 32 31 28 25 24 26 28 28 25 23 21 20 18 18 19 21 22 20 19 19 20 20 19 18
32 34 33 32 33 32 32 28 26 25 25 25 26 27 26 29 29 30 32 32 32 29 26 25 28 29 32 28 24 22 19 17 18 19 21 21 21 19 20 20 20 20 19
27 33 34 33 32 31 31 28 25 25 25 25 24 24 25 28 28 30 31 31 29 28 27 26 27 28 27 26 21 18 16 17 17 19 20 19 20 18 19 20 21 21 20
27 30 35 35 34 32 30 28 27 26 25 25 23 24 24 28 28 29 30 28 27 25 25 25 23 26 25 23 23 20 17 15 16 17 18 18 16 15 16 17 18 18 19
23 31 34 36 33 32 30 28 28 26 25 24 23 23 25 27 27 26 26 25 24 23 22 20 20 19 21 18 19 21 17 14 14 13 14 16 14 13 15 15 14 15 16
22 27 30 36 34 31 31 30 28 26 24 23 23 24 25 25 24 24 23 21 21 19 17 17 16 15 16 15 16 17 17 11 12 11 12 13 11 12 13 13 13 12 13
10 17 25 29 32 30 29 28 25 24 22 22 24 24 24 24 23 21 20 19 18 17 15 15 13 13 11 13 12 12 13 11 10 11 11 12 10 11 12 12 13 13 14
28 32 29 27 21 22 22 21 22 22 22 22 23 24 22 22 19 17 16 16 16 15 13 11 10 10 10 10 10 10 9 8 9 9 11 10 10 10 10 10 12 12 11
34 31 28 23 19 19 16 18 19 21 21 23 22 22 20 18 16 15 14 14 12 10 9 8 8 8 9 9 10 8 7 6 6 8 8 6 6 7 8 8 10 10 10
29 29 33 26 20 17 15 18 19 21 21 23 22 20 18 17 15 14 13 11 9 7 7 9 9 9 7 7 7 8 7 6 6 6 5 3 4 4 6 6 8 8 7
28 28 27 24 23 21 19 17 20 21 22 21 20 17 16 14 13 13 12 11 10 10 10 10 8 7 8 9 11 9 9 8 8 6 2 2 1 3 3 5 5 5 4
29 38 31 24 22 21 20 20 21 20 18 18 17 14 14 13 13 13 11 14 12 10 8 7 8 10 10 9 9 8 10 10 10 7 3 1 2 2 1 3 4 5 7
25 32 27 22 22 22 21 21 21 19 15 15 16 16 18 16 16 15 13 12 10 9 8 8 8 7 6 7 9 11 12 11 9 8 6 4 3 3 2 4 4 4 6
25 30 26 22 21 21 23 21 20 19 17 18 18 20 17 14 14 14 13 12 10 9 9 7 6 5 6 7 9 12 11 11 10 9 9 7 4 2 2 3 3 3 4
34 30 27 24 25 24 23 20 21 21 20 19 18 16 14 11 11 13 13 12 12 10 8 6 5 5 5 8 11 11 12 9 9 11 12 10 2 2 3 4 4 4 4
26 29 27 25 28 26 27 23 22 21 19 16 14 13 11 10 12 16 14 12 11 8 5 3 3 5 7 9 8 7 7 8 8 11 13 10 5 5 6 5 7 5 4
29 30 28 27 29 27 24 24 23 20 15 13 12 12 13 14 15 15 12 11 9 6 4 3 4 7 9 9 5 5 6 7 9 11 13 12 11 7 5 4 3 4 4
31 31 29 29 29 28 27 25 21 17 16 16 17 16 14 15 15 13 12 10 6 3 1 4 7 9 11 9 4 4 5 5 8 9 10 9 8 5 5 3 1 3 5
30 33 30 29 31 32 31 28 22 21 20 19 18 16 14 15 15 12 10 8 4 1 5 7 10 11 9 7 3 5 1 8 6 6 6 7 7 6 3 5 5 3 3
34 36 33 33 35 37 36 32 26 23 22 20 19 17 16 16 13 9 6 3 4 6 7 10 10 7 4 4 1 2 2 2 1 4 6 4 4 3 5 3 2 3 5
32 40 40 38 39 38 35 29 22 22 20 21 22 21 18 13 8 5 4 4 6 8 11 10 7 3 3 1 2 1 1 3 4 6 3 3 1 5 6 2 3 4 4
33 36 36 41 40 39 34 31 29 30 24 26 26 21 16 11 9 6 5 5 7 9 9 8 8 5 3 3 2 1 3 3 3 3 7 6 4 7 7 9 9 8 9
30 39 38 38 38 38 35 34 32 29 28 26 23 20 16 12 9 8 6 5 7 8 7 6 5 2 1 0 2 4 6 8 9 5 3 5 6 9 8 8 9 10 13
30 34 32 35 34 37 32 30 29 28 25 26 23 21 17 14 11 7 3 5 8 8 6 3 2 1 4 3 5 6 6 5 5 7 4 8 8 9 9 10 10 12 14

GFSSE_925_spd_030.txt.gz
Wind_Speed
29 31 31 32 33 34 34 33 31 29 29 28 28 28 28 29 29 29 29 30 29 27 25 24 23 19 19 19 21 23 22 22 22 21 21 20 20 20 20 19 21 20 19
37 34 33 33 33 33 33 32 31 29 28 29 29 28 28 30 29 32 32 30 29 27 26 24 23 20 18 21 21 22 21 23 24 23 22 20 20 20 20 20 20 19 19
34 33 32 33 33 33 32 31 30 30 29 29 29 28 29 30 31 33 33 30 28 28 26 28 27 28 27 25 23 21 20 22 23 23 23 22 21 20 20 21 21 19 18
29 30 31 31 32 33 32 30 30 30 31 30 29 28 29 32 33 32 32 30 29 28 27 30 29 26 25 23 21 20 20 20 21 22 22 22 21 19 19 20 21 20 20
26 29 30 31 32 32 31 29 28 31 31 30 28 29 29 30 32 32 31 30 28 27 27 27 26 24 23 20 19 20 19 18 18 19 20 19 19 17 18 18 19 19 20
25 29 29 29 30 30 30 29 28 31 30 29 28 28 26 27 30 31 30 29 27 26 23 25 23 22 23 21 21 19 17 17 16 17 17 17 16 15 16 16 16 16 17
23 28 29 29 31 29 27 28 27 30 28 27 27 27 25 29 29 27 27 26 25 24 24 22 20 21 21 22 20 17 15 14 13 14 14 14 13 13 14 14 13 14 15
15 24 27 29 25 27 25 27 27 26 26 26 26 26 27 28 27 25 23 22 20 19 19 20 18 18 18 17 17 15 13 12 12 11 12 13 13 13 12 13 14 14 14
12 16 20 28 28 23 24 23 26 25 25 24 25 26 26 26 24 22 20 18 17 16 16 17 17 15 15 14 13 13 12 11 11 10 11 10 10 11 11 13 15 14 13
27 24 29 31 32 21 22 21 23 23 25 24 25 25 25 24 22 20 17 16 14 14 13 12 13 13 13 13 11 10 9 9 9 9 10 9 9 10 10 11 13 13 12
37 34 37 41 21 17 18 17 19 20 23 24 24 24 24 22 19 17 14 13 11 11 10 9 10 11 11 11 10 8 7 8 7 8 7 6 7 8 9 9 10 10 10
31 37 34 30 18 17 15 13 13 17 20 23 23 22 20 18 17 15 13 11 10 9 10 11 11 11 10 10 10 10 9 8 6 4 3 4 5 4 6 7 8 9 11
34 37 37 23 21 25 15 15 17 19 21 20 20 19 17 17 15 14 12 11 12 12 12 11 10 10 11 11 11 11 10 9 8 6 1 1 2 2 3 6 7 9 10
27 41 39 39 29 18 15 14 15 19 22 21 18 16 16 15 14 13 11 13 12 11 11 10 10 11 10 8 9 8 8 8 8 6 4 1 2 0 1 3 6 8 9
32 38 37 29 23 18 14 16 17 18 19 18 16 14 14 13 14 13 14 13 11 9 9 10 10 9 7 7 9 9 9 8 7 6 5 5 3 3 1 2 4 6 8
26 27 30 22 16 18 14 17 19 17 17 18 16 14 13 14 15 14 13 12 11 10 9 8 7 7 7 8 8 10 9 6 6 6 7 6 3 2 2 4 5 5 4
26 26 28 20 16 18 15 18 19 16 16 17 17 17 15 13 13 13 12 12 11 11 9 7 6 6 6 8 8 8 6 6 6 6 6 4 1 2 5 7 6 5 4
24 26 23 20 18 19 18 19 18 19 17 17 17 16 15 14 13 13 13 13 13 10 7 5 4 4 6 6 4 4 5 6 7 6 4 3 3 5 8 9 8 6 4
29 25 24 23 21 22 20 21 22 21 19 16 15 14 13 13 15 15 15 14 11 8 6 4 3 4 5 3 3 3 4 5 7 8 10 10 7 7 6 5 4 1 2
28 26 26 24 23 24 22 22 24 21 18 15 14 13 14 17 18 16 14 13 9 6 4 2 3 5 5 4 3 3 2 6 7 7 7 6 6 4 2 1 2 3 2
27 28 28 28 26 26 24 26 26 23 18 17 15 15 16 17 16 15 13 10 7 4 4 2 3 5 6 5 3 3 3 5 5 5 6 4 3 2 2 4 5 3 4
32 32 31 31 31 32 31 30 27 25 22 19 18 16 15 17 16 14 11 8 7 5 4 3 4 6 4 4 2 3 3 2 0 3 4 3 1 1 2 3 1 3 3
35 38 38 38 36 35 36 34 25 24 20 20 20 19 19 18 15 11 10 8 7 4 2 4 6 6 5 4 3 3 2 2 4 5 5 3 3 3 3 4 4 4 4
29 33 37 41 37 35 36 35 32 30 24 21 25 23 21 17 15 12 10 8 5 4 5 8 9 8 6 3 1 0 2 3 2 3 4 7 8 7 8 10 10 6 6
33 35 34 30 31 34 35 36 33 29 26 23 26 24 21 18 15 13 11 6 4 6 7 9 8 7 4 2 2 3 5 7 8 4 3 6 10 10 15 13 11 9 9
26 31 28 25 34 35 36 34 35 31 25 26 27 26 23 20 18 14 10 7 5 9 5 6 4 2 0 2 5 5 5 4 4 7 5 9 8 12 14 14 12 10 13

GFSSE_925_spd_033.txt.gz
Wind_Speed
28 28 31 33 35 36 38 38 36 34 31 29 28 30 29 28 28 27 28 28 26 23 21 19 21 22 23 24 25 26 25 25 25 24 23 22 21 21 20 20 20 19 19
30 29 31 34 35 35 35 35 33 32 30 31 31 31 30 30 29 29 30 29 25 22 21 21 22 24 24 24 24 25 25 26 26 25 23 22 22 21 21 20 20 17 19
33 30 29 33 34 34 33 32 32 32 33 32 33 32 33 32 32 30 28 28 26 25 25 24 26 25 24 22 23 24 24 24 24 23 24 21 20 20 20 20 20 20 19
32 29 28 33 33 32 32 31 32 32 33 33 34 34 35 34 32 29 28 27 28 26 26 26 25 25 23 21 21 21 22 21 22 21 19 18 18 18 18 19 20 19 19
29 28 28 34 32 32 32 31 31 31 32 34 35 36 35 34 32 29 28 27 27 25 25 24 22 22 21 20 20 20 19 19 19 18 17 17 17 17 17 17 17 17 17
25 26 32 33 33 32 31 31 31 31 30 32 33 35 34 33 30 30 28 27 25 23 23 24 22 20 20 20 19 17 17 16 17 15 15 16 16 16 15 16 16 16 16
27 24 30 31 32 30 29 31 30 31 29 30 32 34 35 33 30 29 28 25 24 23 23 23 23 22 20 19 17 15 15 14 14 14 15 14 14 15 15 15 16 15 16
24 23 26 29 30 28 25 29 29 31 28 30 31 33 34 32 29 26 26 24 23 21 21 20 20 20 19 18 16 14 13 12 13 14 13 12 13 14 15 15 15 14 14
18 24 22 29 25 23 24 26 28 28 28 30 30 32 32 29 26 23 22 22 20 19 18 18 18 18 17 15 14 13 12 12 11 11 11 10 11 12 12 13 13 13 14
19 23 34 33 29 23 22 19 24 26 26 29 29 29 29 25 22 20 19 18 18 17 16 17 16 15 14 12 11 11 9 9 10 9 9 8 9 9 10 11 13 13 14
27 34 38 43 40 26 23 21 18 21 23 25 27 28 26 21 18 17 16 15 14 14 15 15 14 13 12 11 9 8 7 8 7 7 7 7 6 7 9 9 10 11 12
30 33 47 40 32 23 17 20 20 20 23 25 26 26 23 20 17 15 15 13 12 14 15 14 13 12 11 10 9 8 8 6 6 4 3 5 4 4 6 8 9 10 12
29 29 28 36 33 25 17 16 19 18 22 24 23 22 19 17 16 14 13 14 15 13 14 14 13 12 11 11 10 8 6 6 6 4 1 3 3 3 5 7 8 10 10
30 34 32 35 35 25 20 17 17 21 22 22 19 17 17 16 16 14 14 15 15 14 13 11 11 11 10 9 7 5 6 6 5 4 2 2 4 3 3 7 8 9 9
25 28 29 37 37 23 19 17 13 17 18 18 18 16 16 15 15 15 15 14 13 13 11 11 10 8 7 6 5 6 6 7 6 5 3 2 1 4 3 6 7 8 8
27 26 26 34 21 15 13 16 18 19 19 19 17 15 15 15 14 15 15 14 13 12 12 10 7 6 5 5 5 6 6 6 6 6 6 4 3 3 5 7 7 6 4
29 28 26 22 17 16 12 15 17 19 19 17 16 14 15 15 15 16 15 15 14 12 9 8 7 6 5 4 4 4 4 4 4 6 5 3 3 1 7 8 7 5 5
27 25 24 20 18 16 15 16 19 17 16 18 19 18 15 15 15 15 15 14 13 12 10 8 5 4 4 3 3 4 3 3 3 3 2 2 2 4 6 11 9 6 3
24 23 23 21 19 16 16 17 18 17 16 16 17 17 16 16 15 14 15 16 15 12 9 6 3 3 2 2 3 3 3 4 6 7 6 5 4 5 5 6 5 3 3
25 23 22 22 20 18 18 19 18 19 18 18 17 17 17 17 16 17 18 17 13 10 7 4 3 0 1 2 3 3 3 4 5 6 6 5 5 3 1 2 1 3 5
27 25 24 24 25 24 25 21 19 22 20 19 18 18 17 18 20 20 19 16 13 9 6 3 3 4 2 2 2 1 3 4 4 5 5 4 3 1 3 2 4 3 3
28 28 26 26 27 27 25 24 17 23 22 19 18 18 19 21 22 20 19 16 12 9 6 5 6 5 3 3 1 2 2 5 6 6 5 4 3 1 2 2 2 4 3
29 29 26 23 27 27 24 25 24 23 18 18 20 21 22 22 22 21 18 15 13 9 7 6 7 6 4 4 6 2 2 2 3 4 6 4 4 4 3 3 4 5 5
27 23 24 26 29 28 28 28 30 26 21 17 21 20 23 24 23 20 18 17 14 10 8 5 3 5 7 4 4 3 2 1 3 4 2 4 6 7 7 6 7 6 7
25 26 27 24 26 29 33 31 29 22 19 20 24 23 24 23 22 21 20 18 14 13 7 4 5 5 2 4 3 3 3 3 4 7 7 7 8 9 8 10 10 8 9
22 25 29 28 26 28 29 26 30 28 29 25 29 28 26 25 25 23 21 17 15 9 6 8 10 7 6 4 4 3 3 4 5 7 7 11 11 11 10 12 10 8 9